Location: Borovka
(49.7741°N, 14.5280°E)
Time: 22:42:09
(UTC+00:00)

CUTE 1.7 + AOD 2 - Visible Passes

Search period start: 12 March 2026 00:00
Search period end: 22 March 2026 00:00
Orbit: 535 x 547 km, 97.8° (Epoch: 12 March)

Date Brightness Start Highest point End Pass type
(mag) Time Alt. Az. Time Alt. Az. Time Alt. Az.
12 Mar ? 02:57:31 10° NNE 03:01:05 32° E 03:04:30 11° SSE visible
12 Mar ? 04:32:13 10° N 04:35:31 26° WNW 04:38:49 10° WSW visible
13 Mar ? 02:50:34 10° NE 02:53:58 27° E 02:57:23 10° SSE visible
13 Mar ? 04:25:02 10° N 04:28:31 30° WNW 04:31:58 10° SW visible
14 Mar ? 02:43:39 10° NE 02:46:51 23° E 02:50:02 10° SSE visible
14 Mar ? 04:17:52 10° N 04:21:28 35° WNW 04:25:04 10° SW visible
15 Mar ? 02:36:45 10° NE 02:39:42 20° E 02:42:39 10° SE visible
15 Mar ? 04:10:42 10° N 04:14:25 42° WNW 04:18:08 10° SW visible
16 Mar ? 02:29:53 10° NE 02:32:32 17° E 02:35:09 10° SE visible
16 Mar ? 04:03:31 10° N 04:07:20 49° WNW 04:11:08 10° SW visible
17 Mar ? 02:23:07 10° NE 02:25:20 15° E 02:27:33 10° SE visible
17 Mar ? 03:56:21 10° N 04:00:14 59° WNW 04:04:07 10° SSW visible
18 Mar ? 02:16:28 10° ENE 02:18:08 12° E 02:19:46 10° ESE visible
18 Mar ? 03:49:11 10° N 03:53:07 71° WNW 03:57:02 10° SSW visible
19 Mar ? 02:10:21 10° E 02:10:52 10° E 02:11:24 10° E visible
19 Mar ? 03:42:01 10° NNE 03:45:58 85° WNW 03:49:55 10° SSW visible
20 Mar ? 03:34:51 10° NNE 03:38:49 81° ESE 03:42:45 10° SSW visible
21 Mar ? 03:27:41 10° NNE 03:31:37 67° ESE 03:35:32 10° S visible
